TimeEDT,TemperatureF,Dew PointF,Humidity,Sea Level PressureIn,VisibilityMPH,Wind Direction,Wind SpeedMPH,Gust SpeedMPH,PrecipitationIn,Events,Conditions,WindDirDegrees,DateUTC
12:55 AM,39.0,32.0,76,30.23,10.0,North,10.4,-,N/A,,Overcast,360,2013-10-25 04:55:00
1:55 AM,39.9,30.9,70,30.24,10.0,North,10.4,-,0.00,Rain,Light Rain,350,2013-10-25 05:55:00
2:55 AM,41.0,32.0,70,30.25,10.0,NW,3.5,-,0.01,,Overcast,320,2013-10-25 06:55:00
3:55 AM,41.0,30.9,67,30.25,10.0,NNW,9.2,-,0.00,,Overcast,340,2013-10-25 07:55:00
4:55 AM,39.0,30.9,73,30.26,10.0,NNW,6.9,-,N/A,,Mostly Cloudy,330,2013-10-25 08:55:00
5:55 AM,39.0,30.0,70,30.28,10.0,NNW,8.1,-,N/A,,Scattered Clouds,340,2013-10-25 09:55:00
6:55 AM,39.9,28.0,63,30.30,10.0,WNW,3.5,-,N/A,,Scattered Clouds,300,2013-10-25 10:55:00
7:55 AM,39.9,28.0,63,30.31,10.0,NW,4.6,-,N/A,,Scattered Clouds,320,2013-10-25 11:55:00
8:55 AM,43.0,28.9,58,30.32,10.0,WNW,4.6,-,N/A,,Mostly Cloudy,290,2013-10-25 12:55:00
9:55 AM,44.1,28.0,53,30.34,10.0,WNW,9.2,-,N/A,,Mostly Cloudy,290,2013-10-25 13:55:00
10:55 AM,44.1,28.9,55,30.34,10.0,WNW,8.1,-,N/A,,Mostly Cloudy,290,2013-10-25 14:55:00
11:55 AM,45.0,28.0,52,30.33,10.0,West,11.5,-,0.00,,Overcast,260,2013-10-25 15:55:00
12:55 PM,48.0,28.9,48,30.31,10.0,West,9.2,18.4,N/A,,Mostly Cloudy,280,2013-10-25 16:55:00
1:55 PM,46.0,27.0,47,30.30,10.0,West,9.2,-,N/A,,Overcast,270,2013-10-25 17:55:00
2:55 PM,45.0,26.1,48,30.27,10.0,WSW,11.5,18.4,N/A,,Mostly Cloudy,250,2013-10-25 18:55:00
3:55 PM,46.0,27.0,47,30.24,10.0,WSW,13.8,19.6,N/A,,Mostly Cloudy,240,2013-10-25 19:55:00
4:55 PM,46.0,28.0,50,30.22,10.0,SW,13.8,-,N/A,,Mostly Cloudy,230,2013-10-25 20:55:00
5:55 PM,46.9,30.0,52,30.17,10.0,SW,21.9,26.5,N/A,,Mostly Cloudy,230,2013-10-25 21:55:00
6:55 PM,48.0,30.9,52,30.13,10.0,SW,19.6,26.5,N/A,,Mostly Cloudy,220,2013-10-25 22:55:00
7:55 PM,48.9,30.0,48,30.09,10.0,SW,20.7,31.1,N/A,,Mostly Cloudy,220,2013-10-25 23:55:00
8:55 PM,50.0,28.9,44,30.05,10.0,SW,21.9,35.7,N/A,,Scattered Clouds,220,2013-10-26 00:55:00
9:55 PM,51.1,30.0,44,30.02,10.0,SW,27.6,36.8,N/A,,Overcast,220,2013-10-26 01:55:00
10:55 PM,51.1,30.0,44,30.01,10.0,SW,26.5,40.3,N/A,,Overcast,230,2013-10-26 02:55:00
11:55 PM,51.1,30.0,44,29.97,10.0,SW,29.9,42.6,0.00,,Overcast,220,2013-10-26 03:55:00